Regional Weather Roundup
Issued by NWS

Home | Current Version | Previous Version | Text Only | Print | Product List | Glossary On
Versions: 1 2 3 4 5 6 7 8 9 10 11 12 13 14 15 16 17 18 19 20 21 22 23 24 25 26 27 28 29 30 31 32 33 34 35 36 37 38 39 40 41 42 43 44 45 46 47 48 49 50
606
ASUS44 KMEG 191610
RWRTN
TENNESSEE HOURLY STATE WEATHER ROUNDUP
NATIONAL WEATHER SERVICE MEMPHIS TN
1100 AM CDT THU OCT 19 2017

TNZ002-004-019-021-049-052-054-088>092-191700-
WEST TENNESSEE

CITY           SKY/WX    TMP DP  RH WIND       PRES   REMARKS
MEMPHIS INTL   MOSUNNY   68  50  52 S5        30.29R
NWS MEMPHIS      N/A     70 N/A N/A MISG        N/A
JACKSON        SUNNY     69  49  48 S9        30.30S
SOMERVILLE     SUNNY     68  50  52 SW7       30.29R
COVINGTON      SUNNY     68  50  52 SW6       30.29S
BOLIVAR        SUNNY     68  52  56 VRB5      30.30S
HUNTINGDON     SUNNY     68  52  56 VRB3      30.29S
LEXINGTON      SUNNY     66  48  52 VRB7      30.31S
SELMER         SUNNY     66  48  52 VRB5      30.30F
SAVANNAH       SUNNY     68  46  45 SW7       30.30F
$$

TNZ008-025-027-028-033-062-065-066-191700-
NORTH MIDDLE TENNESSEE

CITY           SKY/WX    TMP DP  RH WIND       PRES   REMARKS
NASHVILLE      SUNNY     67  45  45 S8        30.33F
PORTLAND       SUNNY     64  48  55 SW8G14    30.31F HAZE
CLARKSVILLE    SUNNY     65  48  54 SW8       30.30F
SMYRNA         SUNNY     67  49  52 VRB5      30.34F
COOKEVILLE     SUNNY     64  45  48 VRB7      30.34F
GALLATIN       SUNNY     66  48  52 S7        30.35F
CROSSVILLE     SUNNY     63  39  41 W10       30.36F
$$

TNZ061-075-076-078-094-096-097-191700-
SOUTH MIDDLE TENNESSEE

CITY           SKY/WX    TMP DP  RH WIND       PRES   REMARKS
FAYETTEVILLE   SUNNY     66  46  48 VRB5      30.33S
TULLAHOMA      SUNNY     66  41  39 SW5       30.35S
WINCHESTER     SUNNY     66  43  42 S5          N/A
COLUMBIA       SUNNY     66  46  48 SW8       30.30F
SHELBYVILLE    SUNNY     66  46  48 SW6       30.33F
$$

TNZ017-018-042-046-047-191700-
NORTHEAST TENNESSEE

CITY           SKY/WX    TMP DP  RH WIND       PRES   REMARKS
TRI CITIES     SUNNY     61  47  59 SW3       30.36F
ELIZABETHTON   SUNNY     63  41  45 SW6       30.35F
$$

TNZ012-013-036-069-073-074-191700-
CENTRAL EAST TENNESSEE

CITY           SKY/WX    TMP DP  RH WIND       PRES   REMARKS
KNOXVILLE      SUNNY     62  51  67 W3        30.35F
OAK RIDGE      SUNNY     56  52  86 CALM      30.37F
DOWNTOWN KNOXV SUNNY     61  50  67 CALM      30.36F
GATLINBURG     SUNNY     61  50  67 VRB3      30.35F
MORRISTOWN     SUNNY     63  48  59 VRB3      30.35F
JACKSBORO      CLOUDY    54  54 100 CALM      30.40F
$$

TNZ083-085-099-191700-
SOUTHEAST TENNESSEE

CITY           SKY/WX    TMP DP  RH WIND       PRES   REMARKS
CHATTANOOGA    MOSUNNY   64  45  49 NW3       30.36S
DAYTON         SUNNY     59  54  82 CALM      30.35F
$$

SKY/WX REPORTED AS FAIR MEANS FEW OR NO CLOUDS BELOW
12 THOUSAND FEET.





USA.gov is the U.S. government's official web portal to all federal, state and local government web resources and services.